FW5632 Weather Reports


Display with metric or nautical units.
time (UTC)temp
F
wind
direction
speed
MPH
gust
MPH
rain 1hr
in
rain 24hr
in
rain mn
in
humidity
%
barometer
mb
20260506155036 57 198 0.0 0.0 0.00 0.00 0.00 81 1020.1
20260506154541 57 236 0.0 0.0 0.00 0.00 0.00 82 1020.0
20260506154033 57 360 0.0 0.0 0.00 0.00 0.00 83 1020.2
20260506153531 57 360 0.0 0.0 0.00 0.00 0.00 83 1020.1
20260506153031 56 360 0.0 0.0 0.00 0.00 0.00 83 1020.1
20260506152530 56 360 0.0 0.0 0.00 0.00 0.00 83 1020.1
20260506152028 56 234 0.0 0.0 0.00 0.00 0.00 84 1020.2
20260506151528 56 360 0.0 0.0 0.00 0.00 0.00 85 1020.2
20260506151028 56 236 0.0 0.0 0.00 0.00 0.00 85 1020.1
20260506150525 55 236 0.0 0.0 0.00 0.00 0.00 86 1020.2
20260506150027 55 236 0.0 0.0 0.00 0.00 0.00 86 1020.1
20260506145527 55 236 0.0 0.0 0.00 0.00 0.00 86 1020.1
20260506145022 55 236 0.0 0.0 0.00 0.00 0.00 87 1020.1
20260506144524 55 236 0.0 0.0 0.00 0.00 0.00 87 1020.1
20260506144020 55 236 0.0 0.0 0.00 0.00 0.00 88 1020.1
20260506143522 55 236 0.0 0.0 0.00 0.00 0.00 88 1020.0
20260506143019 55 236 0.0 0.0 0.00 0.00 0.00 88 1019.9
20260506142517 54 236 0.0 0.0 0.00 0.00 0.00 88 1019.9
20260506142017 54 360 0.0 0.0 0.00 0.00 0.00 88 1019.9
20260506141516 54 360 0.0 0.0 0.00 0.00 0.00 89 1019.8
20260506141015 54 360 0.0 0.0 0.00 0.00 0.00 88 1019.7
20260506140516 54 360 0.0 0.0 0.00 0.00 0.00 88 1019.8
20260506140013 54 360 0.0 0.0 0.00 0.00 0.00 88 1019.7
20260506135512 54 360 0.0 0.0 0.00 0.00 0.00 88 1019.7
20260506135013 54 360 0.0 0.0 0.00 0.00 0.00 88 1019.7
20260506134509 54 360 0.0 0.0 0.00 0.00 0.00 88 1019.5
20260506134011 54 360 0.0 0.0 0.00 0.00 0.00 88 1019.4
20260506133508 54 360 0.0 0.0 0.00 0.00 0.00 88 1019.5
20260506133007 54 360 0.0 0.0 0.00 0.00 0.00 88 1019.5
20260506132506 54 360 0.0 0.0 0.00 0.00 0.00 88 1019.4
20260506132006 54 360 0.0 0.0 0.00 0.00 0.00 88 1019.4
20260506131508 54 360 0.0 0.0 0.00 0.00 0.00 88 1019.3
20260506131007 54 360 0.0 0.0 0.00 0.00 0.00 88 1019.2
20260506130509 54 360 0.0 0.0 0.00 0.00 0.00 88 1019.2
20260506130005 54 360 0.0 0.0 0.00 0.00 0.00 88 1019.2
20260506125504 54 360 0.0 0.0 0.00 0.00 0.00 88 1019.2
20260506125004 54 360 0.0 0.0 0.00 0.00 0.00 88 1019.1
20260506124505 54 360 0.0 0.0 0.00 0.00 0.00 88 1019.2
20260506124003 54 360 0.0 0.0 0.00 0.00 0.00 88 1019.0
20260506123504 53 360 0.0 0.0 0.00 0.00 0.00 88 1019.1
20260506123002 53 360 0.0 0.0 0.00 0.00 0.00 88 1019.1
20260506122502 53 360 0.0 0.0 0.00 0.00 0.00 88 1019.0
20260506122002 53 360 0.0 0.0 0.00 0.00 0.00 88 1019.0
20260506121502 53 360 0.0 0.0 0.00 0.00 0.00 88 1019.0
20260506121001 53 360 0.0 0.0 0.00 0.00 0.00 88 1019.0
20260506120501 53 360 0.0 0.0 0.00 0.00 0.00 88 1019.0
20260506115600 53 360 0.0 0.0 0.00 0.01 0.00 88 1019.0
20260506115059 53 360 0.0 0.0 0.00 0.01 0.00 88 1018.9
20260506114607 53 360 0.0 0.0 0.00 0.01 0.00 88 1018.9
20260506114101 53 360 0.0 0.0 0.00 0.01 0.00 88 1018.9
20260506113559 53 360 0.0 0.0 0.00 0.01 0.00 88 1018.9
20260506113058 53 360 0.0 0.0 0.00 0.01 0.00 88 1018.8
20260506112557 53 360 0.0 0.0 0.00 0.01 0.00 88 1018.8
20260506112056 53 360 0.0 0.0 0.00 0.01 0.00 88 1018.8
20260506111557 53 360 0.0 0.0 0.00 0.01 0.00 88 1018.7
20260506111056 53 360 0.0 0.0 0.00 0.01 0.00 88 1018.6
20260506110556 53 360 0.0 0.0 0.00 0.01 0.00 88 1018.6
20260506105558 53 360 0.0 0.0 0.00 0.03 0.00 87 1018.6
20260506105055 53 360 0.0 0.0 0.00 0.03 0.00 87 1018.5
20260506104554 53 360 0.0 0.0 0.00 0.03 0.00 87 1018.5
20260506104054 53 360 0.0 0.0 0.00 0.03 0.00 87 1018.5
20260506103554 53 360 0.0 0.0 0.00 0.03 0.00 88 1018.5
20260506103054 53 360 0.0 0.0 0.00 0.03 0.00 87 1018.5
20260506102553 53 360 0.0 0.0 0.00 0.03 0.00 87 1018.5
20260506102053 53 360 0.0 0.0 0.00 0.03 0.00 87 1018.4
20260506101602 53 360 0.0 0.0 0.00 0.03 0.00 87 1018.4
20260506101053 53 360 0.0 0.0 0.00 0.03 0.00 87 1018.4
20260506100552 53 360 0.0 0.0 0.00 0.03 0.00 87 1018.4
20260506100052 53 360 0.0 0.0 0.00 0.03 0.00 87 1018.4
20260506095554 53 360 0.0 0.0 0.00 0.03 0.00 87 1018.4
20260506095051 53 360 0.0 0.0 0.00 0.03 0.00 87 1018.3
20260506094612 53 360 0.0 0.0 0.00 0.03 0.00 87 1018.4
20260506094051 53 360 0.0 0.0 0.00 0.03 0.00 87 1018.3
20260506093551 53 360 0.0 0.0 0.00 0.03 0.00 87 1018.3
20260506093054 53 360 0.0 0.0 0.00 0.03 0.00 87 1018.3
20260506092550 53 360 0.0 0.0 0.00 0.03 0.00 87 1018.3
20260506092050 53 360 0.0 0.0 0.00 0.03 0.00 87 1018.3
20260506091550 53 360 0.0 0.0 0.00 0.03 0.00 87 1018.4
20260506091049 53 360 0.0 0.0 0.00 0.03 0.00 86 1018.4
20260506090548 53 360 0.0 0.0 0.00 0.03 0.00 86 1018.4
20260506090048 53 234 0.0 0.0 0.00 0.03 0.00 86 1018.5
20260506085548 53 234 0.0 0.0 0.00 0.03 0.00 86 1018.5
20260506085047 53 360 0.0 0.0 0.00 0.03 0.00 86 1018.4
20260506084548 53 360 0.0 0.0 0.00 0.03 0.00 85 1018.3
20260506084051 53 234 0.0 0.0 0.00 0.03 0.00 85 1018.4
20260506083546 53 234 0.0 0.0 0.00 0.03 0.00 85 1018.4
20260506083046 53 234 0.0 0.0 0.00 0.03 0.00 85 1018.4
20260506082548 53 235 0.0 0.0 0.00 0.03 0.00 85 1018.6
20260506082044 54 234 0.0 0.0 0.00 0.03 0.00 84 1018.5
20260506081545 54 234 0.0 0.0 0.00 0.03 0.00 84 1018.6
20260506081044 54 234 0.0 0.0 0.00 0.03 0.00 84 1018.6
20260506080542 54 234 0.0 0.0 0.00 0.03 0.00 83 1018.6
20260506073042 55 236 0.0 0.0 0.00 0.03 0.00 82 1018.2
20260506072538 55 236 0.0 0.0 0.00 0.03 0.00 81 1018.2
20260506072037 55 236 0.0 0.0 0.00 0.03 0.00 81 1018.1
20260506071536 55 236 0.0 0.0 0.00 0.03 0.00 81 1018.1
20260506071036 55 236 0.0 0.0 0.00 0.03 0.00 81 1018.0
20260506070534 56 236 0.0 0.0 0.00 0.03 0.00 81 1018.0
20260506062031 56 236 0.0 0.0 0.00 0.03 0.03 80 1017.6
20260506061534 56 236 0.0 0.0 0.00 0.03 0.03 80 1017.6
20260506061032 57 236 0.0 0.0 0.00 0.03 0.03 80 1017.5
20260506060529 57 236 0.0 0.0 0.00 0.03 0.03 80 1017.5
20260506051024 57 235 0.0 0.0 0.00 0.03 0.03 79 1017.2
20260506050526 57 235 0.0 0.0 0.00 0.03 0.03 79 1017.1
20260506045022 57 235 0.0 0.0 0.00 0.03 0.03 79 1016.9
20260506044529 57 235 0.0 0.0 0.00 0.03 0.03 79 1016.9
20260506044021 57 235 0.0 0.0 0.00 0.03 0.03 79 1016.9
20260506043523 57 235 0.0 0.0 0.00 0.03 0.03 78 1016.9
20260506043021 57 235 0.0 0.0 0.00 0.03 0.03 78 1016.8
20260506042520 57 235 0.0 0.0 0.00 0.03 0.03 78 1016.7
20260506042023 58 235 0.0 0.0 0.00 0.03 0.03 78 1016.6
20260506041519 58 235 0.0 0.0 0.00 0.03 0.03 78 1016.6
20260506041018 58 235 0.0 0.0 0.00 0.03 0.03 78 1016.5
20260506040517 58 243 0.0 0.0 0.00 0.03 0.03 78 1016.5
20260506040038 58 243 0.0 0.0 0.00 0.03 0.03 77 1016.4
20260506035516 58 244 0.0 0.0 0.00 0.03 0.03 77 1016.4
20260506035016 58 243 0.0 0.0 0.00 0.03 0.03 77 1016.4
20260506034516 58 243 0.0 0.0 0.00 0.03 0.03 77 1016.2
20260506034015 58 243 0.0 0.0 0.00 0.03 0.03 77 1016.1
20260506033513 58 243 0.0 0.0 0.00 0.03 0.03 77 1016.1
20260506033014 58 243 0.0 0.0 0.00 0.03 0.03 77 1016.1
20260506032513 58 243 0.0 0.0 0.00 0.03 0.03 77 1016.0
20260506032013 59 243 0.0 0.0 0.00 0.03 0.03 76 1016.0
20260506031529 59 243 0.0 0.0 0.00 0.03 0.03 76 1015.9
20260506031015 59 243 0.0 0.0 0.00 0.03 0.03 76 1015.7
20260506030511 59 243 0.0 0.0 0.00 0.03 0.03 75 1015.7
20260506030012 59 243 0.0 0.0 0.00 0.03 0.03 75 1015.6
20260506025510 59 244 0.0 0.0 0.00 0.03 0.03 75 1015.6
20260506025013 59 238 0.0 0.0 0.00 0.03 0.03 75 1015.5
20260506024517 59 238 0.0 0.0 0.00 0.03 0.03 75 1015.4
20260506024010 59 238 0.0 0.0 0.00 0.03 0.03 74 1015.4
20260506023510 59 242 0.0 0.0 0.00 0.03 0.03 74 1015.5
20260506023011 59 241 0.0 0.0 0.00 0.03 0.03 74 1015.4
20260506022509 59 241 0.0 0.0 0.00 0.03 0.03 74 1015.4
20260506022009 60 241 0.0 0.0 0.00 0.03 0.03 74 1015.3
20260506021511 60 241 0.0 0.0 0.00 0.03 0.03 74 1015.3
20260506021009 60 241 0.0 0.0 0.00 0.03 0.03 74 1015.1
20260506020512 60 235 0.0 0.0 0.00 0.03 0.03 74 1015.1
20260506020009 60 235 0.0 0.0 0.00 0.03 0.03 74 1015.1
20260506015508 60 235 0.0 0.0 0.00 0.03 0.03 74 1015.0
20260506015009 60 225 0.0 0.0 0.00 0.03 0.03 73 1014.9
20260506014512 60 240 0.0 0.0 0.00 0.03 0.03 73 1015.0
20260506014008 60 241 0.0 0.0 0.00 0.03 0.03 73 1015.0
20260506013512 60 242 0.0 0.0 0.00 0.03 0.03 74 1015.0
20260506013008 60 242 0.0 0.0 0.00 0.03 0.03 73 1015.1
20260506012510 60 242 0.0 0.0 0.00 0.03 0.03 73 1015.1
20260506012009 60 242 0.0 0.0 0.00 0.03 0.03 73 1015.1
20260506011508 60 360 0.0 0.0 0.00 0.03 0.03 72 1015.2
20260506011007 60 360 0.0 0.0 0.00 0.03 0.03 72 1015.1
20260506010507 61 360 0.0 0.0 0.00 0.03 0.03 72 1015.1
20260506010012 61 360 0.0 0.0 0.00 0.03 0.03 72 1015.1
20260506005507 61 360 0.0 0.0 0.00 0.03 0.03 72 1015.1
20260506005009 61 360 0.0 0.0 0.00 0.03 0.03 72 1015.0
20260506004511 61 360 0.0 0.0 0.00 0.03 0.03 73 1014.9
20260506004009 61 360 0.0 0.0 0.00 0.03 0.03 73 1014.9
20260506003507 61 360 0.0 0.0 0.00 0.03 0.03 73 1014.9
20260506003009 61 360 0.0 0.0 0.00 0.03 0.03 72 1014.9
20260506002505 61 360 0.0 0.0 0.00 0.03 0.03 71 1014.9
20260506002008 62 360 0.0 0.0 0.00 0.03 0.03 72 1014.9
20260506001506 62 360 0.0 0.0 0.00 0.03 0.03 72 1014.8
20260506001008 62 238 0.0 0.0 0.00 0.03 0.03 71 1014.7
20260506000505 62 360 0.0 0.0 0.00 0.03 0.03 71 1014.7
20260506000004 62 360 0.0 0.0 0.00 0.03 0.03 71 1014.7
20260505235504 62 237 0.0 0.0 0.00 0.03 0.03 70 1014.7
20260505235004 62 221 0.0 0.0 0.00 0.03 0.03 71 1014.7
20260505234504 62 232 0.0 0.0 0.00 0.03 0.03 70 1014.7
20260505234004 62 234 0.0 0.0 0.00 0.03 0.03 71 1014.7
20260505233504 62 234 0.0 0.0 0.00 0.03 0.03 71 1014.7
20260505233004 62 239 0.0 0.0 0.00 0.03 0.03 72 1014.8
20260505232507 62 239 0.0 0.0 0.00 0.03 0.03 71 1014.8
20260505232003 62 239 0.0 0.0 0.00 0.03 0.03 71 1014.8
20260505231504 62 360 0.0 0.0 0.00 0.03 0.03 71 1014.8
20260505231003 62 360 0.0 0.0 0.00 0.03 0.03 71 1014.9
20260505230502 62 360 0.0 0.0 0.00 0.03 0.03 71 1014.9
20260505230003 62 360 0.0 0.0 0.00 0.03 0.03 71 1014.9
20260505225505 62 360 0.0 0.0 0.00 0.03 0.03 71 1014.9
20260505225003 62 360 0.0 0.0 0.00 0.03 0.03 71 1014.9
20260505224501 62 217 0.0 0.0 0.00 0.03 0.03 72 1014.9
20260505224100 62 229 0.0 0.0 0.00 0.03 0.03 72 1014.8
20260505223559 61 227 0.0 0.0 0.00 0.03 0.03 73 1014.8
20260505223058 61 211 0.0 0.0 0.00 0.03 0.03 73 1014.8
20260505222557 61 211 0.0 0.0 0.00 0.03 0.03 73 1014.9
20260505222057 61 210 0.0 0.0 0.00 0.03 0.03 74 1015.0
20260505221557 61 226 0.0 0.0 0.00 0.03 0.03 74 1015.0
20260505221054 60 229 0.0 0.0 0.00 0.03 0.03 75 1015.0
20260505220557 60 360 0.0 0.0 0.00 0.03 0.03 75 1015.0
20260505220053 60 360 0.0 0.0 0.00 0.03 0.03 75 1015.1
20260505215552 60 360 0.0 0.0 0.00 0.03 0.03 75 1015.2
20260505215051 60 360 0.0 0.0 0.00 0.03 0.03 75 1015.2
20260505214555 60 360 0.0 0.0 0.00 0.03 0.03 76 1015.2
20260505214051 59 360 0.0 0.0 0.00 0.03 0.03 76 1015.2
20260505213550 59 360 0.0 0.0 0.00 0.03 0.03 77 1015.3
20260505213048 59 360 0.0 0.0 0.00 0.03 0.03 77 1015.3
20260505212547 59 360 0.0 0.0 0.00 0.03 0.03 77 1015.3
20260505212047 59 360 0.0 0.0 0.00 0.03 0.03 78 1015.4
20260505211547 59 360 0.0 0.0 0.00 0.03 0.03 77 1015.4
20260505211051 59 360 0.0 0.0 0.00 0.03 0.03 77 1015.4
20260505210545 59 360 0.0 0.0 0.00 0.03 0.03 78 1015.4
20260505210045 59 360 0.0 0.0 0.00 0.03 0.03 78 1015.3
20260505205545 58 360 0.0 0.0 0.00 0.03 0.03 78 1015.4
20260505205046 58 360 0.0 0.0 0.00 0.03 0.03 78 1015.4
20260505204547 58 360 0.0 0.0 0.00 0.03 0.03 78 1015.4
20260505204044 58 360 0.0 0.0 0.00 0.03 0.03 77 1015.4
20260505203548 58 360 0.0 0.0 0.00 0.03 0.03 78 1015.4
20260505203047 58 360 0.0 0.0 0.00 0.03 0.03 79 1015.4
20260505202549 58 360 0.0 0.0 0.00 0.03 0.03 80 1015.4
20260505202045 58 360 0.0 0.0 0.00 0.03 0.03 81 1015.4
20260505201544 58 360 0.0 0.0 0.00 0.03 0.03 82 1015.4
20260505201041 58 360 0.0 0.0 0.00 0.03 0.03 82 1015.4
20260505200540 57 360 0.0 0.0 0.00 0.03 0.03 83 1015.4
20260505200045 57 360 0.0 0.0 0.00 0.03 0.03 84 1015.5
20260505195538 57 360 0.0 0.0 0.00 0.03 0.03 84 1015.6
20260505195039 57 360 0.0 0.0 0.00 0.03 0.03 85 1015.6
20260505194540 57 360 0.0 0.0 0.00 0.03 0.03 86 1015.6
20260505194138 57 360 0.0 0.0 0.00 0.03 0.03 87 1015.6
20260505193536 57 360 0.0 0.0 0.00 0.03 0.03 87 1015.5
20260505193037 57 360 0.0 0.0 0.00 0.03 0.03 88 1015.5
20260505192538 56 153 0.0 0.0 0.00 0.03 0.03 88 1015.5
20260505192036 56 153 0.0 0.0 0.00 0.03 0.03 89 1015.6
20260505191537 56 153 0.0 0.0 0.00 0.03 0.03 89 1015.6
20260505191037 56 153 0.0 0.0 0.00 0.03 0.03 89 1015.5
20260505190533 56 153 0.0 0.0 0.00 0.03 0.03 89 1015.5
20260505190038 56 153 0.0 0.0 0.00 0.03 0.03 90 1015.5
20260505185532 56 153 0.0 0.0 0.00 0.03 0.03 90 1015.4
20260505185032 56 153 0.0 0.0 0.00 0.03 0.03 90 1015.3
20260505184531 56 153 0.0 0.0 0.00 0.03 0.03 90 1015.4
20260505184031 56 153 0.0 0.0 0.00 0.03 0.03 90 1015.4
20260505183531 56 152 0.0 0.0 0.00 0.03 0.03 90 1015.4
20260505183033 56 152 0.0 0.0 0.00 0.03 0.03 90 1015.4
20260505182530 56 184 0.0 0.0 0.00 0.03 0.03 90 1015.4
20260505182030 56 150 0.0 0.0 0.00 0.03 0.03 91 1015.4
20260505181529 56 150 0.0 0.0 0.00 0.03 0.03 91 1015.3
20260505181029 56 150 0.0 0.0 0.00 0.03 0.03 91 1015.3
20260505180527 55 150 0.0 0.0 0.00 0.03 0.03 91 1015.2
20260505180027 55 153 0.0 0.0 0.00 0.03 0.03 91 1015.2
20260505175525 55 162 0.0 0.0 0.00 0.03 0.03 91 1015.3
20260505175025 55 161 0.0 0.0 0.00 0.03 0.03 91 1015.2
20260505174524 55 161 0.0 0.0 0.00 0.03 0.03 91 1015.2
20260505174026 55 156 0.0 0.0 0.00 0.03 0.03 91 1015.2
20260505173521 55 157 0.0 0.0 0.00 0.03 0.03 91 1015.2
20260505173022 54 157 0.0 0.0 0.00 0.03 0.03 91 1015.1
20260505172521 54 157 0.0 0.0 0.00 0.03 0.03 91 1015.0
20260505172021 54 157 0.0 0.0 0.00 0.03 0.03 90 1015.0
20260505171524 54 156 0.0 0.0 0.00 0.03 0.03 90 1014.9
20260505171020 54 158 0.0 0.0 0.00 0.03 0.03 90 1014.9
20260505170519 54 158 0.0 0.0 0.00 0.03 0.03 90 1015.0
20260505170019 54 157 0.0 0.0 0.00 0.03 0.03 89 1014.9
20260505165518 54 157 0.0 0.0 0.00 0.03 0.03 89 1015.0
20260505165018 54 161 0.0 0.0 0.00 0.03 0.03 89 1015.0
20260505164518 54 140 0.0 0.0 0.00 0.03 0.03 89 1014.9
20260505164020 54 175 0.0 0.0 0.00 0.03 0.03 89 1014.9
20260505163516 54 175 0.0 0.0 0.00 0.03 0.03 89 1014.8
20260505163015 54 175 0.0 0.0 0.00 0.03 0.03 89 1014.9
20260505162516 54 175 0.0 0.0 0.00 0.03 0.03 89 1014.9
20260505162014 54 175 0.0 0.0 0.00 0.03 0.03 89 1014.9
20260505161514 54 177 0.0 0.0 0.00 0.03 0.03 89 1014.9
20260505161016 54 177 0.0 0.0 0.00 0.03 0.03 89 1014.9
20260505160512 54 178 0.0 0.0 0.00 0.03 0.03 89 1014.8